Tracking 20621 objects as of 1-Apr-2020
HD Live streaming from Space Station
objects crossing your sky now

COSMOS 1814 DEB *

Track COSMOS 1814 DEB * now!
10-day predictions


NORAD ID: 18257
Int'l Code: 1987-006C
Perigee: 702.2 km
Apogee: 710.9 km
Inclination: 74.0 °
Period: 98.8 minutes
Semi major axis: 7077 km
RCS: 0.0165 m2 (small)
Launch date: January 21, 1987
Source: Commonwealth of Independent States (former USSR) (CIS)
Launch site: PLESETSK MISSILE AND SPACE COMPLEX (PKMTR)

Note: This is SATELLITE DEBRIS
aabbcc
Your satellite tracking list
Your tracking list is empty




NASA's NSSDC Master Catalog

Two Line Element Set (TLE):
1 18257U 87006C   20091.81128036 +.00000259 +00000-0 +62753-4 0  9998
2 18257 074.0388 350.8072 0006147 310.3762 049.6866 14.58061656823510
Source of the keplerian elements: AFSPC